sat.trackr.live / text

‹ back to catalog

KUIPER-00119

NORAD 65155 · 2025-171Z

PAYLOAD ACTIVE UNKNOWN

§ Identity

Operator
Country
US
Launch date
2025-08-11
Launch site
AFETR
Launch vehicle
Mass (kg)
RCS (m²)

External: N2YO · Heavens-Above · Gunter

§ Orbital elements

Epoch: 2026-09-21T13:00:55.369728Z

Period
97.30 min
Inclination
51.9025°
Eccentricity
0.0000569
Mean motion
14.79939196 rev/d
Perigee alt
629.1 km
Apogee alt
629.9 km
Semi-major
7,007.7 km
B*
3.1779e-4
RAAN
17.1213°
Arg perigee
86.5996°
Mean anomaly
273.5031°
Rev number
6,181

§ Raw data

KUIPER-001191 65155U 25171Z   26264.54230752  .00002203  00000+0  31779-3 0  99922 65155  51.9025  17.1213 0000569  86.5996 273.5031 14.79939196 61819

JSON: /api/v1/satellites/65155 · /tle

For live sub-satellite position, see the globe view (requires WebGL).

§ Visibility from observer

Set your observer location to see the next 7 days of passes ≥ 10°. The values pass through the URL so the page stays shareable.

No JS? Fill the form by hand. The geolocation button needs JavaScript.